GPS BIII-1

Last updated on Sat Aug 15 2026 00:02:49 GMT+0000 (Coordinated Universal Time)

1 43873U 18109A 26226.09066921 -.00000009 00000+0 00000+0 0 9993 2 43873 55.7185 89.9017 0039233 196.4972 336.3533 2.00564011 56231
UTC large
Height (km)
Speed (km/s)
/
Latitude / Longitude
Inclination (degrees)
Orbital Period (minutes)
Azimuth
Elevation
Range (km)
Doppler Factor

Next 0 passes for location: London (51.5072 / 0.1276)

No passes found over London.
GPS BIII-1